Location: Goettingen
(51.5300°N, 9.9433°E)
Time: 06:35:21
(UTC+02:00)

ISS - Pass Details

Date: 07 May 2021
Orbit: 417 x 422 km, 51.6° (Epoch: 18 May)

Event Time Altitude Azimuth Distance (km) Brightness Sun altitude
Exits shadow 02:02:24 14° 98° (E) 1,260 -1.3 -20.9°
Drops below altitude 10° 02:03:09 10° 90° (E) 1,505 -0.8 -20.9°
Sets 02:05:28 0° 77° (ENE) 2,373 0.4 -20.8°
